Other Public Products
Issued by NWS Grand Forks, ND

Home | Current Version | Previous Version | Text Only | Print | Product List | Glossary On
Versions: 1 2 3 4 5 6 7 8 9 10 11 12 13 14 15 16 17 18 19 20 21 22 23 24 25 26 27 28 29 30 31 32 33 34 35 36 37 38 39 40 41 42 43 44 45 46 47 48 49 50
000
FPUS83 KFGF 290510
OPUFGF
PRAIRIE TO PINES WEATHER ROUNDUP
NATIONAL WEATHER SERVICE EASTERN NORTH DAKOTA/GRAND FORKS ND
1200 AM CDT FRI MAY 29 2015

 **SATELLITE DATA USED TO AUGMENT SKY COVER AT AUTOMATED STATIONS**
 *****  WEATHER ACROSS EASTERN NORTH DAKOTA  *****

CITY           SKY/WX    TMP DP  RH WIND       PRES   REMARKS
GRAND FORKS    CLOUDY    62  59  90 N17       29.86S
GRAND FORKS AF CLOUDY    62  59  87 N10       29.88R
GRAND CITY NWS   N/A     61 N/A N/A N5          N/A
BUXTON         NOT AVBL
DEVILS LAKE    MOCLDY    63  52  67 N20G25    29.91R
FARGO          LGT RAIN  63  61  93 S14       29.84S
WAHPETON ARPT  CLOUDY    61  59  94 S9        29.89S
$$

 *****  WEATHER ACROSS CENTRAL AND WESTERN NORTH DAKOTA  *****

CITY           SKY/WX    TMP DP  RH WIND       PRES   REMARKS
JAMESTOWN      CLOUDY    64  58  80 N13       29.87R
BISMARCK       CLOUDY    65  55  70 N9        29.94R
MINOT          LGT RAIN  52  45  77 N20G35    30.04R
MINOT AFB      CLOUDY    52  52 100 N23G29    30.04R
GARRISON         N/A     53  47  79 N14G28    30.01R
WILLISTON      CLOUDY    51  42  71 N21G35    30.11S
DICKINSON      CLOUDY    57  50  77 N20       30.01R
HETTINGER      RAIN      58  55  90 NW14      29.99R FOG
$$

 *****  OTHER OBSERVATIONS NORTHEAST NORTH DAKOTA  *****

CITY           SKY/WX    TMP DP  RH WIND       PRES   REMARKS
WALHALLA         N/A     54  54 100 MISG      29.96R
LANGDON        CLOUDY    54  48  82 N18G32    29.96R
CAVALIER       NOT AVBL
GRAFTON        FAIR      59  59 100 N14       29.90R
CANDO          CLOUDY    54  48  82 N24G31    29.98R
FORT TOTTEN      N/A     62  55  79 N5        29.95S
ROLLA          CLOUDY    48  48 100 N23G30    30.04R
RUGBY          NOT AVBL
 ***** THE ABOVE OBSERVATIONS ARE NON NWS ARE NOT QUALITY
        CONTROLLED AND MAY MIS-REPORT RAIN FOR SNOW...
$$

 *****  OTHER OBSERVATIONS SOUTHEAST NORTH DAKOTA *****

CITY           SKY/WX    TMP DP  RH WIND       PRES   REMARKS
COOPERSTOWN    NOT AVBL
VALLEY CITY    CLOUDY    64  64 100 SW3       29.86S
OAKES            N/A     63  63 100 E3        29.85S
GWINNER        NOT AVBL
BUFFALO        NOT AVBL
WYNDMERE         N/A     63  64 100 SE10        N/A
 ***** THE ABOVE OBSERVATIONS ARE NON NWS ARE NOT QUALITY
       CONTROLLED AND MAY MIS-REPORT RAIN FOR SNOW...
$$

  *****  WEATHER ACROSS NORTHERN MINNESOTA  *****

CITY           SKY/WX    TMP DP  RH WIND       PRES   REMARKS
FLAG ISLAND    CLOUDY    59  57  94 NW5       29.82F
WARROAD        CLOUDY    61  55  82 W3        29.85S
ROSEAU         CLOUDY    63  57  82 W6        29.85S
HALLOCK        CLOUDY    61  57  88 N14       29.89R
THF RVR FALLS  CLOUDY    64  63  94 CALM      29.86R
HALSTAD        NOT AVBL
FOSSTON        CLOUDY    61  57  88 S3        29.86F
BAUDETTE       CLOUDY    60  59  96 SW5       29.84R
WASKISH        LGT RAIN  61  59  94 CALM      29.85S
CROOKSTON      CLOUDY    64  61  88 N9        29.86S
$$
  *****  WEATHER ACROSS CENTRAL AND WEST MINNESOTA  *****

CITY           SKY/WX    TMP DP  RH WIND       PRES   REMARKS
BEMIDJI        LGT RAIN  60  58  93 CALM      29.87S
PARK RAPIDS    LGT RAIN  62  57  83 W5        29.88R
WADENA         HVY RAIN  61  59  94 W6        29.91S
DETROIT LAKES  HVY RAIN  61  59  94 S9        29.88S
MOORHEAD       LGT RAIN  63  61  94 S10       29.86S
FERGUS FALLS   RAIN      61  61 100 SE6       29.90F
ELBOW LAKE     RAIN      60  59  97 E3        29.92F
MORRIS MN      TSTM      63  61  94 N17G23    29.93R
STAPLES        HVY RAIN  61  57  88 N12       29.89R
WHEATON        RAIN      59  57  94 E5        29.92F
$$
  *****  WEATHER ELSEWHERE ACROSS MINNESOTA  *****

CITY           SKY/WX    TMP DP  RH WIND       PRES   REMARKS
DULUTH         MOCLDY    44  42  93 E8        29.93F
INTRNTL FALLS  LGT RAIN  59  58  96 S5        29.84F
ELY            NOT AVBL
CLOQUET        FOG       43  43 100 E5        29.93F VSB 3/4
BRAINERD       CLOUDY    69  53  56 S12       29.87F
HIBBING        CLOUDY    57  48  72 CALM      29.90R
ALEXANDRIA     CLOUDY    65  56  72 NW18G24   29.94R
SAINT CLOUD    MOCLDY    70  57  63 S21G26    29.89F
MINNEAPOLIS    CLOUDY    74  56  53 SW9G20    29.93F
$$

  *****  WEATHER ACROSS SOUTH DAKOTA  *****

CITY           SKY/WX    TMP DP  RH WIND       PRES   REMARKS
SIOUX FALLS    PTCLDY    66  62  87 S10       29.88F
BROOKINGS      MOCLDY    64  57  77 S10       29.89S
WATERTOWN      CLOUDY    67  59  75 NW10      29.89R
HURON            N/A    N/A N/A N/A MISG      29.84F
SISSETON         N/A     61  61 100 E9        29.86F
ABERDEEN       CLOUDY    63  60  90 E8        29.84F
MITCHELL       CLOUDY    70  62  76 SW3       29.86R
PIERRE         CLOUDY    60  58  92 W8        29.88R
MOBRIDGE       CLOUDY    64  62  93 N7        29.86S
RAPID CITY     CLOUDY    56  49  77 NW13      30.00R
$$

  *****  SOME WEATHER IN NEARBY STATES *****

CITY           SKY/WX    TMP DP  RH WIND       PRES   REMARKS
GLASGOW MT     PTCLDY    48  40  73 NW8       30.22R
GREAT FALLS MT LGT RAIN  45  44  97 N10       30.33R FOG
CHEYENNE WY    CLOUDY    54  38  54 N9        30.16S
SCOTTSBLUFF NE CLOUDY    57  50  77 W7        30.08R
OMAHA NE       CLOUDY    68  64  87 SE13      29.92F
DES MOINES IA  MOCLDY    65  63  93 S6        29.96F
DAVENPORT IA   MOCLDY    66  60  81 CALM      30.02F
CHICAGO IL     MOCLDY    65  54  67 SE5       30.05F
EAU CLAIRE WI  CLOUDY    70  54  56 S7        29.97F
LA CROSSE WI   CLOUDY    73  54  51 S6        29.97F
$$

  *****  SOME NATIONAL WEATHER *****

CITY           SKY/WX    TMP DP  RH WIND       PRES   REMARKS
LA GUARDIA NY  PTCLDY    69  54  58 NE9       30.24R
RALEIGH NC     PTCLDY    70  68  93 CALM      30.22S
ATLANTA GA     MOCLDY    70  66  87 NE6       30.19F
NEW ORLEANS LA PTCLDY    77  71  82 SE9       30.05F
OKLAHOMA CITY  LGT RAIN  67  59  75 SE30G37   29.88F
ALBUQUERQUE NM CLEAR     72  31  22 N7        30.07R
SALT LAKE CITY PTCLDY    60  44  55 S5        30.14R
LOS ANGELES CA PTCLDY    59  55  87 SW8       29.96R
BOISE ID       CLEAR     70  43  37 CALM      30.06R
SEATTLE WA     PTCLDY    69  53  56 N8        30.00S
$$

*** WEATHER ACROSS MANITOBA...SASKATCHEWAN AND ONTARIO ***
                ***ONTARIO***

CITY           SKY/WX    TMP DP  RH WIND       PRES   REMARKS
GERALDTON      MOCLDY    54  50  87 NW5       29.92S
THUNDER BAY    CLOUDY    46  46 100 SE3       29.93F FOG
SIOUX LOOKOUT  LGT RAIN  55  55 100 S6        29.84F FOG
TORONTO        CLEAR     63  52  67 SE6       30.25F
BIG TROUT LK   LGT RAIN  41  41 100 E10G18    30.02S
PICKLE LAKE    NOT AVBL
DRYDEN         CLOUDY    57  55  94 CALM      29.83F FOG
KENORA         FOG       57  57 100 VRB2      29.84S VSB 3/4
$$
                *** MANITOBA***

CITY           SKY/WX    TMP DP  RH WIND       PRES   REMARKS
BRANDON        CLOUDY    48  41  76 N24G31    30.06R
DAUPHIN        LGT RAIN  45  43  93 N13G20    30.13S
ISLAND LAKE    LGT RAIN  41  41 100 N7        29.96R
PILOT MOUND      N/A     50  46  87 N21         N/A
THE PAS        PTCLDY    37  30  75 N18G25    30.26R
THOMPSON       LGT SNOW  30  28  93 NE12      30.26R WCI  21
WINNIPEG       CLOUDY    50  45  81 N17G29    29.97R
LYNN LAKE      FLURRIES  30  25  80 N12       30.35S WCI  21
CHURCHILL      CLOUDY    28  23  80 NE8       30.41S WCI  20
GILLAM         FRZ DRZL  28  27  93 NE14G26   30.26R VSB 5/8 WCI  17
$$
                ***SASKATCHEWAN***

CITY           SKY/WX    TMP DP  RH WIND       PRES   REMARKS
ESTEVAN        CLOUDY    46  37  71 N18G26    30.15R
KINDERSLEY     PTCLDY    43  28  56 NE9       30.32R
LLOYDMINSTER   CLEAR     41  28  60 N5        30.34R
PRINCE ALBERT  PTCLDY    39  28  65 NE9       30.33R
REGINA         CLEAR     43  32  65 N14G21    30.24R
YORKTON        MOCLDY    41  37  87 N14G20    30.21R



USA.gov is the U.S. government's official web portal to all federal, state and local government web resources and services.